Location: Unspecified
(64.9000°N, 0.0000°E)
Time: 09:58:55
(UTC+00:00)

Transit 2A Rocket - Pass Details

Date: 27 June 2019
Orbit: 590 x 913 km, 66.7° (Epoch: 16 August)

Event Time Altitude Azimuth Distance (km) Brightness Sun altitude
Rises 08:43:28 0° 182° (S) 3,532 8.7 37.6°
Reaches altitude 10° 08:46:28 10° 169° (S) 2,574 8.3 37.8°
Maximum altitude 08:51:07 24° 118° (ESE) 1,735 8.9 38.3°
Drops below altitude 10° 08:55:35 10° 67° (ENE) 2,467 8.2 38.7°
Sets 08:58:23 0° 54° (NE) 3,353 8.6 38.9°
